DELTA 1 DEB, 10828

Orbit data source: Space-Track

DELTA 1 DEB, 10828 is space debris in SSO originally from a launch on Thu, 29 Jul 1976 UTC launched from the Air Force Western Test Range (AFWTR). Debris objects in space refer to the collection of defunct objects orbiting the Earth. Examples of debris include non-operational satellites, rocket bodies, and fragments generated from explosions, collisions, or faulty payload assembly.

Loading next visibility...
Identifier
10828, 1976-077BY
Orbit
SSO
Country
Flag of USUS
Related business
Manufacturer
Unknown
Mission
Spacecraft
Bus & Motor
Unknown
Mass
Unknown
Launch date (UTC)
1976-07-29 (49 years ago)
Launch vehicle
Unknown
Launch site
Air Force Western Test Range (AFWTR)
Object type
Payload
Rocket body
Debris
Shape & HBR
Unknown shape, 0.2 m
Radar Cross Section
Small (<0.1 m²)

Expand to show TLE details & history
Last TLE update: 14 hours ago

TLE from 14 hours ago
0 DELTA 1 DEB
1 10828U 76077BY  25292.16961491 -.00000027  00000-0  16472-3 0  9996
2 10828 102.5365 248.5913 0099962  42.6304 330.1018 12.22375597197263
Epoch: 2025-10-19T04:04Z
TLE epoch observation values (Epoch: 2025-10-19T04:04:14.728Z)
Latitude
11.8239°
Longitude
156.98473°
Altitude
1,515.174 km
Speed
7.139 km/s
True Right ascension
16h 23m 44s
True Declination
11° 45' 42"
Sunlit
Object was in daylight at epoch
Visualization orbit readout
Latitude
Unknown
Longitude
Unknown
Altitude
Unknown
Speed
Unknown
Apparent Right ascension
Unknown
Apparent Declination
Unknown
Sunlit
N/A
Visualization observer readout
Local Sidereal Time
12:50:21
Azimuth
Unknown
Elevation
Unknown
Doppler factor
Unknown
Orbital elements
Apogee altitude
1,659.39 km
Perigee altitude
1,500.291 km
Semi-major axis
7,957.978 km
Eccentricity
0.01
Inclination
102.5365°
RAAN
248.5913°
Arg. of periapsis
42.6304°
True anomaly
329.52458°
Mean anomaly
330.1018°
Eccentric anomaly
329.81382°
Mean motion
3.05731 °/min
Orbital period
117.75 mins
BSTAR
0.00016472
Loading maneuver chart data...
Computing Atmospheric mass density...
Loading historical data...
Loading historical data...
Loading historical data...
Loading historical data...
Loading historical data...
Loading historical data...
Loading historical data...

Documentation

Showing up to 5 results
|